Flag for Canada Weather past 2 weeks in Wood Buffalo, Alberta, Canada

Now
80 °F

Pleasantly warm.


Feels Like: 79 °F
Forecast: 59 / 85 °F
Wind: 18 mph from Southwest

Location: Fort McMurray CS

Current Time: Jul 3, 2015 at 11:34:05 AM

Latest Report: Jul 3, 2015 at 10:00 AM


Visibility: N/A

Pressure: 29.56 "Hg

Humidity: 30%

Dew point: 45 °F

Location of Wood BuffaloLocation

Historic Weather in Wood Buffalo — Graph

°F

Wood Buffalo temperature yesterday

Maximum temperature yesterday: 88 °F (at 6:00 PM)
Minimum temperature yesterday: 54 °F (at 5:00 AM)
Average temperature yesterday: 72 °F

Past Weeks' High & Low Weather Summary

 TemperatureHumidityPressure
High90 °F (Jun 27, 4:00 PM)99% (Jul 2, 4:00 AM)30.00 "Hg (Jul 2, 4:00 AM)
Low36 °F (Jun 20, 4:00 AM)15% (Jun 28, 5:00 PM)29.56 "Hg (Jul 3, 10:00 AM)
Average67 °F53%29.84 "Hg
* Reported Jun 18 10:00 AM — Jul 3 10:00 AM, Wood Buffalo, Weather by CustomWeather, © 2015

Note: Actual official high and low records may vary slightly from our data, if they occured in-between our weather recording intervals... More about our weather records

Advertising

Wood Buffalo weather history for previous 24 hours

 ConditionsComfort  
Time TempWeatherWind HumidityBarometerVisibility
10:00 AM
Fri, Jul 3
80 °FPleasantly warm.18 mph30%29.56 "HgN/A
9:00 AM77 °FPleasantly warm.12 mph38%29.57 "HgN/A
8:00 AM73 °FMild.9 mph49%29.58 "HgN/A
7:00 AM71 °FMild.9 mph51%29.59 "HgN/A
6:00 AM70 °FMild.6 mph54%29.59 "HgN/A
5:00 AM69 °FMild.7 mph55%29.60 "HgN/A
4:00 AM68 °FMild.8 mph54%29.63 "HgN/A
3:00 AM67 °FMild.8 mph54%29.65 "HgN/A
2:00 AM71 °FMild.10 mph47%29.66 "HgN/A
1:00 AM69 °FMild.8 mph46%29.68 "HgN/A
12:00 AM69 °FMild.8 mph44%29.69 "HgN/A
11:00 PM
Thu, Jul 2
68 °FMild.7 mph51%29.71 "HgN/A
10:00 PM75 °FMild.6 mph40%29.72 "HgN/A
9:00 PM81 °FPleasantly warm.5 mph31%29.72 "HgN/A
8:00 PM83 °FPleasantly warm.7 mph25%29.73 "HgN/A
7:00 PM86 °FPleasantly warm.8 mph22%29.75 "HgN/A
6:00 PM88 °FHot.7 mph21%29.76 "HgN/A
5:00 PM87 °FPleasantly warm.6 mph22%29.79 "HgN/A
4:00 PM86 °FPleasantly warm.13 mph20%29.80 "HgN/A
3:00 PM85 °FPleasantly warm.12 mph22%29.83 "HgN/A
2:00 PM86 °FPleasantly warm.9 mph26%29.84 "HgN/A
1:00 PM84 °FPleasantly warm.9 mph29%29.86 "HgN/A
12:00 PM82 °FPleasantly warm.9 mph27%29.88 "HgN/A
11:00 AM77 °FWarm.8 mph41%29.90 "HgN/A
Weather by CustomWeather, © 2015

See weather overviewHow to use our weather pages